{"data":{"norad_id":53395,"intl_designator":"2022-097H","name":"STARLINK-4534","alt_names":[],"object_type":"PAYLOAD","status":"ACTIVE","operator":null,"country":"US","launch_date":"2022-08-10","launch_site_code":"AFETR","launch_vehicle":null,"mission":null,"orbit_class":"UNKNOWN","rcs_meters":null,"size_class":null,"mass_kg":null,"dimensions":null,"purposes":["comms"],"wikipedia_slug":null,"has_3d_model":false,"image_url":null,"decayed_at":null,"tle_current":{"epoch":"2026-05-25T03:26:25.047744Z","epoch_age_seconds":62351,"freshness":"FRESH","line1":"1 53395U 22097H   26145.14334546  .00000273  00000+0  35248-4 0  9990","line2":"2 53395  53.2131 140.9176 0001195  70.9980 289.1141 15.08831645210054","mean_motion":15.08831645,"eccentricity":0.0001195,"inclination_deg":53.2131,"raan_deg":140.9176,"arg_perigee_deg":70.998,"mean_anomaly_deg":289.1141,"bstar":3.5248e-5,"rev_number":21005,"period_min":95.438083153406,"perigee_km":538.94223721621,"apogee_km":540.59561673275,"semimajor_km":6917.9059269745,"source":"CELESTRAK","updated_at":"2026-05-25T13:38:17.395937Z"}}}